�������l�o���
Date,Time,MP-1(��Sv/h),MP-2(��Sv/h),MP-3(��Sv/h),MP-4(��Sv/h),MP-5(��Sv/h),MP-6(��Sv/h),MP-7(��Sv/h),MP-8(��Sv/h),����,����(m/s),���J
2018/11/25,00:00,0.780,1.183,0.828,1.481,1.070,0.454,0.801,0.758,�k�k��,7.0,��
2018/11/25,00:10,0.780,1.183,0.826,1.485,1.066,0.454,0.802,0.759,�k�k��,7.7,��
2018/11/25,00:20,0.778,1.181,0.828,1.488,1.067,0.453,0.802,0.758,�k�k��,7.2,��
2018/11/25,00:30,0.779,1.182,0.828,1.484,1.068,0.454,0.802,0.758,�k�k��,7.5,��
2018/11/25,00:40,0.779,1.182,0.827,1.488,1.069,0.453,0.801,0.758,�k��,6.7,��
2018/11/25,00:50,0.779,1.183,0.826,1.485,1.069,0.454,0.801,0.759,�k��,7.0,��
2018/11/25,01:00,0.780,1.183,0.829,1.484,1.069,0.454,0.803,0.758,�k�k��,7.8,��
2018/11/25,01:10,0.780,1.181,0.828,1.488,1.068,0.454,0.802,0.759,�k�k��,7.1,��
2018/11/25,01:20,0.779,1.183,0.827,1.488,1.068,0.454,0.802,0.759,�k�k��,7.4,��
2018/11/25,01:30,0.782,1.180,0.828,1.487,1.068,0.453,0.803,0.759,�k�k��,7.5,��
2018/11/25,01:40,0.779,1.185,0.829,1.486,1.068,0.455,0.802,0.759,�k�k��,7.9,��
2018/11/25,01:50,0.780,1.183,0.828,1.486,1.068,0.454,0.803,0.758,�k�k��,8.5,��
2018/11/25,02:00,0.779,1.181,0.828,1.486,1.069,0.453,0.802,0.759,�k�k��,7.4,��
2018/11/25,02:10,0.780,1.181,0.825,1.488,1.067,0.454,0.801,0.759,�k�k��,8.0,�L
2018/11/25,02:20,0.779,1.181,0.828,1.486,1.066,0.454,0.800,0.758,�k�k��,7.0,��
2018/11/25,02:30,0.780,1.183,0.829,1.487,1.067,0.453,0.801,0.757,�k�k��,7.4,�L
2018/11/25,02:40,0.780,1.180,0.830,1.485,1.068,0.455,0.803,0.758,�k�k��,6.5,�L
2018/11/25,02:50,0.780,1.182,0.829,1.484,1.068,0.455,0.802,0.759,�k�k��,6.7,��
2018/11/25,03:00,0.781,1.185,0.829,1.484,1.068,0.453,0.802,0.761,�k�k��,6.1,��
2018/11/25,03:10,0.780,1.180,0.828,1.486,1.067,0.454,0.802,0.759,�k�k��,6.7,�L
2018/11/25,03:20,0.781,1.182,0.827,1.483,1.066,0.453,0.803,0.759,�k�k��,5.8,�L
2018/11/25,03:30,0.780,1.183,0.828,1.486,1.066,0.453,0.802,0.759,�k�k��,6.3,��
2018/11/25,03:40,0.780,1.180,0.829,1.486,1.069,0.455,0.803,0.759,�k�k��,6.3,�L
2018/11/25,03:50,0.781,1.184,0.829,1.486,1.066,0.452,0.801,0.759,�k�k��,6.3,�L
2018/11/25,04:00,0.779,1.184,0.827,1.488,1.067,0.456,0.803,0.758,�k�k��,6.8,�L
2018/11/25,04:10,0.781,1.182,0.827,1.487,1.069,0.455,0.800,0.758,�k�k��,5.4,�L
2018/11/25,04:20,0.780,1.183,0.827,1.485,1.066,0.453,0.803,0.760,�k�k��,5.0,�L
2018/11/25,04:30,0.779,1.181,0.829,1.484,1.066,0.455,0.802,0.761,�k�k��,5.1,�L
2018/11/25,04:40,0.780,1.184,0.828,1.487,1.069,0.454,0.802,0.760,�k�k��,6.8,�L
2018/11/25,04:50,0.781,1.185,0.828,1.488,1.067,0.455,0.802,0.759,�k�k��,6.8,��
2018/11/25,05:00,0.780,1.181,0.828,1.484,1.068,0.453,0.802,0.761,�k��,6.6,��
2018/11/25,05:10,0.780,1.182,0.828,1.485,1.067,0.454,0.801,0.758,�k��,7.4,��
2018/11/25,05:20,0.780,1.183,0.826,1.486,1.070,0.453,0.803,0.757,�k��,6.8,��
2018/11/25,05:30,0.780,1.182,0.827,1.485,1.067,0.454,0.801,0.758,�k��,5.8,��
2018/11/25,05:40,0.779,1.181,0.827,1.486,1.069,0.452,0.801,0.760,�k��,5.9,��
2018/11/25,05:50,0.781,1.183,0.829,1.487,1.066,0.453,0.800,0.758,�k��,4.5,��
2018/11/25,06:00,0.782,1.182,0.828,1.486,1.067,0.452,0.802,0.758,�k��,4.6,��
2018/11/25,06:10,0.781,1.181,0.826,1.488,1.067,0.454,0.801,0.760,�k��,4.1,��
2018/11/25,06:20,0.778,1.183,0.828,1.486,1.068,0.454,0.802,0.758,�k��,3.1,��
2018/11/25,06:30,0.780,1.179,0.827,1.485,1.067,0.453,0.802,0.758,�k��,2.8,��
2018/11/25,06:40,0.780,1.180,0.826,1.485,1.064,0.452,0.800,0.757,�k�k��,2.5,��
2018/11/25,06:50,0.780,1.180,0.826,1.486,1.067,0.454,0.800,0.758,�k��,2.3,��
2018/11/25,07:00,0.779,1.181,0.826,1.483,1.066,0.452,0.803,0.757,�k��,2.5,��
2018/11/25,07:10,0.780,1.180,0.828,1.482,1.064,0.452,0.801,0.759,�k�k��,2.3,��
2018/11/25,07:20,0.778,1.181,0.828,1.486,1.066,0.454,0.802,0.760,�k��,2.5,��
2018/11/25,07:30,0.777,1.179,0.827,1.484,1.065,0.452,0.800,0.757,�k��,2.6,��
2018/11/25,07:40,0.780,1.181,0.825,1.486,1.066,0.454,0.802,0.758,�k��,2.6,��
2018/11/25,07:50,0.777,1.181,0.827,1.484,1.068,0.453,0.802,0.758,�k��,3.2,��
2018/11/25,08:00,0.781,1.181,0.828,1.484,1.067,0.453,0.800,0.759,�k��,2.8,��
2018/11/25,08:10,0.781,1.182,0.828,1.486,1.067,0.452,0.802,0.759,�k��,3.5,��
2018/11/25,08:20,0.779,1.183,0.827,1.484,1.066,0.453,0.802,0.759,�k�k��,2.6,��
2018/11/25,08:30,0.780,1.185,0.828,1.484,1.067,0.454,0.802,0.759,�k�k��,3.4,��
2018/11/25,08:40,0.782,1.184,0.828,1.485,1.066,0.453,0.805,0.758,�k�k��,3.1,��
2018/11/25,08:50,0.783,1.182,0.828,1.485,1.065,0.455,0.802,0.759,�k�k��,3.1,��
2018/11/25,09:00,0.781,1.182,0.829,1.484,1.067,0.453,0.801,0.759,�k��,3.0,��
2018/11/25,09:10,0.781,1.182,0.830,1.485,1.069,0.452,0.802,0.760,�k�k��,2.5,��
2018/11/25,09:20,0.780,1.182,0.831,1.485,1.067,0.453,0.801,0.759,�k,2.2,��
2018/11/25,09:30,0.782,1.180,0.831,1.487,1.067,0.454,0.802,0.757,�k,2.0,��
2018/11/25,09:40,0.783,1.180,0.830,1.485,1.069,0.455,0.802,0.760,�k�k��,2.6,��
2018/11/25,09:50,0.782,1.183,0.831,1.487,1.068,0.455,0.801,0.760,�k�k��,2.9,��
2018/11/25,10:00,0.783,1.182,0.829,1.487,1.071,0.454,0.802,0.759,�k�k��,2.5,��
2018/11/25,10:10,0.781,1.180,0.828,1.487,1.069,0.456,0.801,0.759,�k,1.9,��
2018/11/25,10:20,0.782,1.180,0.829,1.488,1.071,0.455,0.801,0.760,�k�k��,2.6,��
2018/11/25,10:30,0.782,1.180,0.832,1.488,1.072,0.455,0.801,0.760,�k�k��,2.9,��
2018/11/25,10:40,0.784,1.179,0.829,1.489,1.071,0.454,0.801,0.761,�k�k��,2.0,��
2018/11/25,10:50,0.783,1.180,0.828,1.486,1.070,0.455,0.801,0.760,�k�k��,2.0,��
2018/11/25,11:00,0.782,1.183,0.829,1.489,1.069,0.455,0.800,0.762,�k,2.3,��
2018/11/25,11:10,0.783,1.182,0.831,1.487,1.069,0.454,0.799,0.759,�k,2.9,��
2018/11/25,11:20,0.781,1.182,0.829,1.487,1.067,0.454,0.800,0.760,�k�k��,2.3,��
2018/11/25,11:30,0.780,1.182,0.826,1.488,1.069,0.453,0.801,0.758,�k��,3.4,��
2018/11/25,11:40,0.780,1.182,0.828,1.488,1.066,0.453,0.801,0.761,�k��,3.3,��
2018/11/25,11:50,0.781,1.183,0.829,1.490,1.067,0.454,0.801,0.762,�k��,2.6,��
2018/11/25,12:00,0.782,1.182,0.828,1.486,1.065,0.453,0.801,0.759,�k�k��,3.0,��
2018/11/25,12:10,0.781,1.182,0.828,1.487,1.067,0.454,0.802,0.760,�k,3.3,��
2018/11/25,12:20,0.781,1.182,0.829,1.485,1.065,0.454,0.802,0.759,�k�k��,2.9,��
2018/11/25,12:30,0.781,1.181,0.831,1.488,1.066,0.455,0.802,0.760,�k�k��,3.8,��
2018/11/25,12:40,0.781,1.182,0.828,1.486,1.068,0.457,0.800,0.758,�k�k��,3.7,��
2018/11/25,12:50,0.782,1.184,0.829,1.487,1.066,0.458,0.802,0.758,�k�k��,3.6,��
2018/11/25,13:00,0.782,1.183,0.828,1.487,1.065,0.456,0.802,0.758,�k�k��,3.6,��
2018/11/25,13:10,0.780,1.182,0.829,1.486,1.066,0.455,0.803,0.758,�k��,3.6,��
2018/11/25,13:20,0.782,1.184,0.826,1.490,1.067,0.457,0.803,0.757,�k�k��,3.1,��
2018/11/25,13:30,0.781,1.184,0.829,1.486,1.068,0.455,0.802,0.757,�k��,3.2,��
2018/11/25,13:40,0.783,1.185,0.829,1.489,1.069,0.456,0.802,0.759,�k�k��,3.2,��
2018/11/25,13:50,0.784,1.186,0.829,1.487,1.070,0.456,0.803,0.758,�k��,3.3,��
2018/11/25,14:00,0.783,1.183,0.829,1.489,1.069,0.456,0.803,0.758,�k��,2.5,��
2018/11/25,14:10,0.783,1.182,0.830,1.485,1.069,0.457,0.804,0.757,�k��,2.5,��
2018/11/25,14:20,0.783,1.181,0.828,1.488,1.071,0.457,0.805,0.758,�k��,2.5,��
2018/11/25,14:30,0.782,1.182,0.830,1.487,1.070,0.456,0.804,0.758,�k�k��,2.0,��
2018/11/25,14:40,0.785,1.180,0.830,1.486,1.072,0.456,0.805,0.758,�k��,1.5,��
2018/11/25,14:50,0.781,1.184,0.829,1.488,1.071,0.456,0.804,0.758,���k��,1.2,��
2018/11/25,15:00,0.782,1.188,0.829,1.488,1.072,0.454,0.804,0.758,�k��,1.2,��
2018/11/25,15:10,0.781,1.187,0.830,1.488,1.070,0.456,0.805,0.760,��,0.9,��
2018/11/25,15:20,0.782,1.184,0.829,1.485,1.071,0.454,0.805,0.762,�k�k��,0.6,��
2018/11/25,15:30,0.782,1.185,0.831,1.486,1.068,0.456,0.804,0.760,��,0.9,��
2018/11/25,15:40,0.781,1.184,0.829,1.484,1.070,0.456,0.804,0.761,�쐼,1.1,��
2018/11/25,15:50,0.783,1.185,0.830,1.486,1.065,0.456,0.804,0.760,��쐼,1.5,��
2018/11/25,16:00,0.783,1.183,0.830,1.487,1.068,0.457,0.804,0.760,��,2.0,��
2018/11/25,16:10,0.782,1.185,0.829,1.484,1.065,0.457,0.805,0.760,��,2.6,��
2018/11/25,16:20,0.783,1.184,0.829,1.489,1.067,0.457,0.805,0.760,��,2.0,��
2018/11/25,16:30,0.784,1.183,0.830,1.486,1.068,0.456,0.805,0.760,��,2.3,��
2018/11/25,16:40,0.783,1.181,0.828,1.486,1.068,0.457,0.803,0.759,-,CALM,��
2018/11/25,16:50,0.783,1.183,0.828,1.483,1.068,0.457,0.804,0.759,��쐼,0.9,��
2018/11/25,17:00,0.782,1.184,0.829,1.489,1.068,0.455,0.805,0.760,��,3.9,��
2018/11/25,17:10,0.783,1.185,0.828,1.486,1.071,0.456,0.804,0.759,��,2.6,��
2018/11/25,17:20,0.783,1.185,0.830,1.485,1.071,0.455,0.803,0.761,��,3.3,��
2018/11/25,17:30,0.783,1.183,0.829,1.484,1.069,0.455,0.805,0.760,��,2.3,��
2018/11/25,17:40,0.782,1.185,0.831,1.487,1.069,0.454,0.803,0.760,�쐼,0.9,��
2018/11/25,17:50,0.783,1.185,0.833,1.484,1.069,0.456,0.804,0.759,��쐼,3.7,��
2018/11/25,18:00,0.781,1.185,0.831,1.486,1.073,0.456,0.803,0.759,��쐼,3.1,��
2018/11/25,18:10,0.782,1.186,0.829,1.486,1.069,0.456,0.804,0.759,��,4.3,��
2018/11/25,18:20,0.782,1.183,0.829,1.487,1.073,0.455,0.804,0.759,��,4.1,��
2018/11/25,18:30,0.783,1.181,0.830,1.486,1.071,0.457,0.804,0.760,��쐼,3.1,��
2018/11/25,18:40,0.782,1.182,0.831,1.485,1.071,0.455,0.802,0.760,�쐼,2.8,��
2018/11/25,18:50,0.783,1.183,0.832,1.484,1.070,0.458,0.803,0.759,���쐼,2.2,��
2018/11/25,19:00,0.783,1.184,0.831,1.486,1.069,0.456,0.803,0.759,�쐼,1.7,��
2018/11/25,19:10,0.784,1.183,0.828,1.485,1.071,0.455,0.804,0.760,���쐼,2.0,��
2018/11/25,19:20,0.784,1.183,0.830,1.485,1.070,0.455,0.803,0.759,��쐼,3.2,��
2018/11/25,19:30,0.783,1.183,0.829,1.486,1.069,0.456,0.804,0.760,��쓌,3.0,��
2018/11/25,19:40,0.781,1.183,0.829,1.486,1.072,0.455,0.804,0.760,��,3.5,��
2018/11/25,19:50,0.784,1.182,0.830,1.486,1.071,0.455,0.802,0.760,�쐼,3.7,��
2018/11/25,20:00,0.783,1.183,0.832,1.484,1.069,0.455,0.803,0.760,�쐼,4.7,��
2018/11/25,20:10,0.784,1.182,0.832,1.486,1.071,0.458,0.805,0.762,�쐼,3.7,��
2018/11/25,20:20,0.782,1.183,0.830,1.486,1.070,0.454,0.804,0.759,�쐼,2.6,��
2018/11/25,20:30,0.783,1.181,0.830,1.487,1.071,0.455,0.803,0.758,��쐼,1.7,��
2018/11/25,20:40,0.783,1.186,0.830,1.487,1.070,0.456,0.804,0.758,��,1.9,��
2018/11/25,20:50,0.784,1.182,0.830,1.487,1.070,0.455,0.803,0.760,��쐼,1.7,��
2018/11/25,21:00,0.784,1.185,0.831,1.488,1.070,0.455,0.805,0.760,��,4.0,��
2018/11/25,21:10,0.786,1.184,0.830,1.488,1.069,0.456,0.804,0.760,��,5.3,��
2018/11/25,21:20,0.784,1.183,0.831,1.486,1.069,0.454,0.804,0.759,��,5.0,��
2018/11/25,21:30,0.782,1.183,0.832,1.487,1.070,0.454,0.804,0.759,��,4.5,��
2018/11/25,21:40,0.783,1.185,0.831,1.487,1.069,0.456,0.804,0.761,��,4.2,��
2018/11/25,21:50,0.784,1.183,0.829,1.485,1.069,0.457,0.802,0.762,��,5.6,��
2018/11/25,22:00,0.785,1.183,0.830,1.487,1.068,0.453,0.805,0.759,��,4.6,��
2018/11/25,22:10,0.784,1.183,0.831,1.488,1.070,0.457,0.803,0.758,��쐼,4.0,��
2018/11/25,22:20,0.786,1.183,0.828,1.488,1.069,0.456,0.804,0.759,��쐼,3.4,��
2018/11/25,22:30,0.784,1.185,0.830,1.487,1.070,0.456,0.805,0.760,��쐼,2.3,��
2018/11/25,22:40,0.783,1.184,0.830,1.486,1.070,0.454,0.804,0.760,���쐼,1.2,��
2018/11/25,22:50,0.783,1.185,0.829,1.489,1.069,0.456,0.805,0.760,��,1.5,��
2018/11/25,23:00,0.786,1.184,0.831,1.488,1.070,0.455,0.803,0.761,���쐼,1.1,��
2018/11/25,23:10,0.785,1.184,0.829,1.486,1.071,0.456,0.804,0.761,��,2.3,��
2018/11/25,23:20,0.784,1.184,0.830,1.487,1.069,0.456,0.802,0.760,��,3.8,��
2018/11/25,23:30,0.783,1.183,0.831,1.487,1.068,0.456,0.802,0.760,��,3.4,��
2018/11/25,23:40,0.785,1.183,0.830,1.487,1.069,0.456,0.804,0.760,��,4.2,��
2018/11/25,23:50,0.784,1.184,0.830,1.486,1.071,0.455,0.803,0.760,���k��,4.6,��
